User: anonymous   Login
Location: Unspecified
(0.0000°N, 0.0000°E)
Time: 09:26:43
(UTC+00:00)
Language:

EGG - Orbit

View from above orbital plane
View from above orbital plane
View from above satellite
View from above satellite

Ground track
Ground track

The orbit data is extracted from the following two-line orbital elements,

1 41933U 98067KV  17327.33841373  .00038208  00000-0  34843-3 0  9998
2 41933  51.6372 310.9997 0004851 119.2031 240.9451 15.67485742 48432
Epoch (UTC): 23 November 2017 08:07:18
Eccentricity: 0.0004851
inclination: 51.6372°
perigee height: 363 km
apogee height: 369 km
right ascension of ascending node: 310.9997°
argument of perigee: 119.2031°
revolutions per day: 15.67485742
mean anomaly at epoch: 240.9451°
orbit number at epoch: 4843

The dashed part of the orbit path shows where the satellite is in the earth's shadow,  

DLR